Weather History for MMLO - October, 2012

Change the Weather History Date:

Monday, October 15, 2012

  Actual Average Record
Temperature  
Mean Temperature 70 °F -  
Max Temperature 86 °F 79 °F 87 °F (2007)
Min Temperature 53 °F 53 °F 42 °F (2010)
Cooling Degree Days 4    
Growing Degree Days 20 (Base 50)    
Moisture  
Dew Point 39 °F    
Average Humidity 41    
Maximum Humidity 82    
Minimum Humidity 13    
Precipitation  
Precipitation 0.00 in - - ()
Sea Level Pressure  
Sea Level Pressure 30.06 in    
Wind  
Wind Speed 5 mph ()    
Max Wind Speed 12 mph    
Max Gust Speed -    
Visibility 9.0 miles    
Events      
Averages and records for this station are not official NWS values.
T = Trace of Precipitation, MM = Missing Value Source: Averaged Metar Reports

Daily Weather History Graph

Daily Weather History Graph

Search for Another Location

Airport or City:

Trip Planner

Search our weather history database for the weather conditions in past years. The results will help you decide how hot, cold, wet, or windy it might be!

Date:

Astronomy

Oct. 15, 2012 Rise Set
Actual Time 7:41 AM CDT 7:21 PM CDT
Civil Twilight 7:19 AM CDT 7:43 PM CDT
Nautical Twilight 6:53 AM CDT 8:09 PM CDT
Astronomical Twilight 6:27 AM CDT 8:35 PM CDT
Moon 7:47 AM CDT (10/15) 7:33 PM CDT (10/15)
Length of Visible Light 12h 24m
Length of Day
11h 39m
New Moon, 0% of the Moon is Illuminated
Oct 15
New Moon
Oct 21
First Quarter
Oct 29
Full
Nov 6
Last Quarter
Nov 13
New

Hourly Weather History & Observations

Time (CDT) Temp. Dew Point Humidity Pressure Visibility Wind Dir Wind Speed Gust Speed Precip Events Conditions
12:40 AM 64.4 °F 41.0 °F 42% 29.77 in 8.0 mi ENE 6.9 mph - N/A   Clear
1:44 AM 60.8 °F 42.8 °F 52% 30.21 in 8.0 mi Calm Calm - N/A   Clear
3:42 AM 55.4 °F 44.6 °F 67% 29.78 in 8.0 mi NE 8.1 mph - N/A   Clear
4:42 AM 55.4 °F 42.8 °F 63% 30.24 in 8.0 mi NE 6.9 mph - N/A   Clear
5:42 AM 53.6 °F 46.4 °F 77% 30.24 in 8.0 mi NE 6.9 mph - N/A   Clear
6:42 AM 53.6 °F 48.2 °F 82% 29.91 in 8.0 mi NE 6.9 mph - N/A   Clear
7:42 AM 53.6 °F 46.4 °F 77% 30.27 in 10.0 mi Calm Calm - N/A   Clear
8:47 AM 59.0 °F 48.2 °F 67% 30.27 in 9.0 mi Calm Calm - N/A   Partly Cloudy
9:43 AM 66.2 °F 42.8 °F 43% 29.89 in 9.0 mi Calm Calm - N/A   Partly Cloudy
11:03 AM 73.4 °F 39.2 °F 29% 30.27 in 9.0 mi Calm Calm - N/A   Partly Cloudy
11:40 AM 73.4 °F 41.0 °F 31% 30.27 in 10.0 mi South 8.1 mph - N/A   Partly Cloudy
12:45 PM 78.8 °F 33.8 °F 20% 29.83 in 10.0 mi ESE 9.2 mph - N/A   Clear
1:41 PM 82.4 °F 28.4 °F 14% 30.21 in 10.0 mi SSE 9.2 mph - N/A   Partly Cloudy
2:43 PM 84.2 °F 28.4 °F 13% 30.18 in 10.0 mi South 11.5 mph - N/A   Scattered Clouds
3:41 PM 86.0 °F 30.2 °F 13% 29.72 in 10.0 mi South 6.9 mph - N/A   Scattered Clouds
4:41 PM 86.0 °F 32.0 °F 14% 30.12 in 10.0 mi SSE 4.6 mph - N/A   Scattered Clouds
5:55 PM 84.2 °F 32.0 °F 15% 30.12 in 10.0 mi SSE 6.9 mph - N/A   Scattered Clouds
6:55 PM 75.2 °F 32.0 °F 21% 29.76 in 10.0 mi Calm Calm - N/A   Scattered Clouds
8:41 PM 66.2 °F 46.4 °F 49% 30.15 in 8.0 mi NNE 8.1 mph - N/A   Scattered Clouds
9:43 PM 66.2 °F 33.8 °F 30% 29.83 in 8.0 mi NE 11.5 mph - N/A   Scattered Clouds
10:40 PM 62.6 °F 37.4 °F 39% 30.19 in 8.0 mi ENE 6.9 mph - N/A   Scattered Clouds
11:42 PM 62.6 °F 39.2 °F 42% 30.19 in 8.0 mi ENE 6.9 mph - N/A   Scattered Clouds